Weather History for Lewiston, ID

Change the Weather History Date:

Sunday, June 8, 2014

  Actual Average Record
Temperature  
Mean Temperature 70 °F 64 °F  
Max Temperature 86 °F 76 °F 96 °F (1903)
Min Temperature 53 °F 52 °F 39 °F (1901)
Degree Days  
Heating Degree Days 0 3  
Month to date heating degree days 0 29  
Since 1 June heating degree days 0 29  
Since 1 July heating degree days 5289 5126  
Cooling Degree Days 5 2  
Month to date cooling degree days 31 16  
Year to date cooling degree days 59 48  
Since 1 June cooling degree days 31 16  
Growing Degree Days 20 (Base 50)    
Moisture  
Dew Point 37 °F    
Average Humidity 35    
Maximum Humidity 55    
Minimum Humidity 15    
Precipitation  
Precipitation 0.00 in 0.05 in 1.15 in (1927)
Month to date precipitation 0.15 0.41  
Year to date precipitation 5.44 6.35  
Snow  
Snow 0.00 in 0.00 in 0.00 in (1995)
Month to date snowfall 0.0 0.0  
Since 1 June snowfall 0.0 0.0  
Since 1 July snowfall 16.5 10.5  
Snow Depth 0.00 in    
Sea Level Pressure  
Sea Level Pressure 30.01 in    
Wind  
Wind Speed 4 mph (North)    
Max Wind Speed 12 mph    
Max Gust Speed 16 mph    
Visibility 10 miles    
Events      
T = Trace of Precipitation, MM = Missing Value Source: NWS Daily Summary

Daily Weather History Graph

Daily Weather History Graph

Search for Another Location

Airport:

Trip Planner

Search our weather history database for the weather conditions in past years. The results will help you decide how hot, cold, wet, or windy it might be!

Date:

Astronomy

Jun. 08, 2014 Rise Set
Actual Time 4:56 AM PDT 8:38 PM PDT
Civil Twilight 4:17 AM PDT 9:17 PM PDT
Nautical Twilight 3:25 AM PDT 10:08 PM PDT
Astronomical Twilight 2:14 AM PDT 11:21 PM PDT
Moon 3:47 PM PDT (6/8) 2:08 AM PDT (6/8)
Length of Visible Light 16h 59m
Length of Day
15h 42m
Waxing Gibbous, 78% of the Moon is Illuminated
Jun 8
Waxing Gibbous
Jun 12
Full
Jun 19
Last Quarter
Jun 27
New
Jul 5
First Quarter

Hourly Weather History & Observations

Time (PDT) Temp. Dew Point Humidity Pressure Visibility Wind Dir Wind Speed Gust Speed Precip Events Conditions
12:56 AM 61.0 °F 35.1 °F 38% 30.01 in 10.0 mi South 5.8 mph - N/A   Clear
1:56 AM 59.0 °F 37.4 °F 45% 30.04 in 10.0 mi Calm Calm - N/A   Clear
2:56 AM 60.1 °F 36.0 °F 41% 30.03 in 10.0 mi Calm Calm - N/A   Clear
3:56 AM 57.0 °F 37.0 °F 47% 30.04 in 10.0 mi Calm Calm - N/A   Clear
4:56 AM 55.9 °F 37.0 °F 49% 30.06 in 10.0 mi Calm Calm - N/A   Clear
5:56 AM 55.9 °F 39.0 °F 53% 30.08 in 10.0 mi Calm Calm - N/A   Clear
6:56 AM 60.1 °F 39.0 °F 46% 30.10 in 10.0 mi ENE 4.6 mph - N/A   Clear
7:56 AM 62.1 °F 41.0 °F 46% 30.11 in 10.0 mi NE 4.6 mph - N/A   Clear
8:56 AM 66.9 °F 37.9 °F 34% 30.11 in 10.0 mi Calm Calm - N/A   Clear
10:56 AM 75.9 °F 37.9 °F 25% 30.09 in 10.0 mi Variable 3.5 mph - N/A   Clear
11:56 AM 78.1 °F 37.9 °F 24% 30.09 in 10.0 mi NNE 6.9 mph - N/A   Clear
12:56 PM 81.0 °F 37.0 °F 21% 30.06 in 10.0 mi NE 6.9 mph - N/A   Clear
1:56 PM 82.9 °F 34.0 °F 17% 30.03 in 10.0 mi Variable 5.8 mph - N/A   Clear
2:56 PM 84.9 °F 32.0 °F 15% 30.01 in 10.0 mi WNW 10.4 mph - N/A   Clear
3:56 PM 84.9 °F 33.1 °F 16% 29.98 in 10.0 mi NW 5.8 mph - N/A   Clear
4:56 PM 84.0 °F 35.1 °F 17% 29.96 in 10.0 mi NNW 5.8 mph - N/A   Clear
5:56 PM 84.0 °F 34.0 °F 17% 29.94 in 10.0 mi NE 5.8 mph - N/A   Clear
6:56 PM 82.9 °F 37.9 °F 20% 29.93 in 10.0 mi NNW 5.8 mph - N/A   Clear
7:56 PM 79.0 °F 37.0 °F 22% 29.93 in 10.0 mi NW 6.9 mph - N/A   Clear
8:56 PM 75.0 °F 35.1 °F 23% 29.92 in 10.0 mi NNW 3.5 mph - N/A   Clear
9:56 PM 69.1 °F 37.9 °F 32% 29.93 in 10.0 mi SE 5.8 mph - N/A   Clear
10:56 PM 69.1 °F 39.0 °F 33% 29.93 in 10.0 mi SSE 3.5 mph - N/A   Clear
11:56 PM 66.9 °F 39.9 °F 37% 29.92 in 10.0 mi Calm Calm - N/A   Clear